Location: *
(2.7500°S, 66.6833°W)
Time: 22:29:53
(UTC+00:00)

Cosmos 1238 Rocket - Pass Details

Date: 24 May 2024
Orbit: 365 x 877 km, 82.9° (Epoch: 13 June)

Event Time Altitude Azimuth Distance (km) Brightness Sun altitude
Rises 22:48:40 0° 181° (S) 2,866 6.3 -6.8°
Reaches altitude 10° 22:50:44 10° 180° (S) 2,037 5.5 -7.3°
Maximum altitude 22:55:19 79° 93° (E) 731 3.3 -8.4°
Drops below altitude 10° 23:00:36 10° 6° (N) 2,341 6.2 -9.6°
Sets 23:03:07 0° 5° (N) 3,329 7.0 -10.2°
